[[{"header":{"parameterUnit":"m.s-1","parameterCategory":1,"la1":30.2991,"la2":30.254,"lo1":-89.0895,"lo2":-89.0444,"dy":0.0017,"dx":0.0017,"nx":28,"ny":28,"refTime":"2024-06-08T21:00:00:Z","depth":0,"parameterNumber":2,"parameterNumberName":"U-component_of_WINDS"},"data":[0,0,0,0,0,0,0,0,0,0,0,0,0,0,0,0,0,0,0,0,0,0,0,0,0,0,0,0,0,0,0,0,0,0,0,0,0,0,0,0,0,0,0,0,0,0,0,0,0,0,0,0,0,0,0,0,0,0,0.6226,0.6227,0,0.633,0.6332,0.6333,0.6373,0.6373,0.6373,0.6372,0.6483,0.6486,0.6489,0,0,0,0,0,0,0,0,0,0,0,0,0,0.6062,0.6065,0.6226,0.6227,0.6228,0.633,0.6332,0.6333,0.6373,0.6373,0.6372,0.6372,0.6481,0.6485,0.6489,0,0,0,0,0,0,0,0,0,0,0,0,0,0.6146,0.6065,0.6225,0.626,0.6265,0.633,0.6332,0.6334,0.6373,0.6373,0.6372,0.6372,0.648,0.6485,0.649,0.6529,0,0,0.6504,0.6507,0,0,0,0,0,0,0,0,0.6142,0.6152,0.6254,0.6258,0.6263,0.6338,0.6314,0.6399,0.6373,0.6332,0.6372,0.6372,0.6435,0.6444,0.6464,0.6534,0.6539,0.6505,0.6508,0.651,0.6511,0,0,0,0,0,0,0,0.6136,0.6148,0.6267,0.6255,0.6261,0.6271,0.6283,0.6331,0.6385,0.6336,0.6339,0.6351,0.6437,0.646,0.6467,0.654,0.6505,0.6509,0.6512,0.6514,0.6647,0.6648,0,0,0,0,0,0,0.6124,0.6143,0.6264,0.627,0.62,0.6275,0.6288,0.6315,0.6385,0.6395,0.6351,0.6352,0.6452,0.6462,0.6471,0.6522,0.651,0.6514,0.6517,0.6646,0.6647,0.6648,0,0,0,0,0,0,0.612,0.6134,0.626,0.6208,0.6224,0.6278,0.6308,0.6317,0.6339,0.6396,0.6406,0.6363,0.6452,0.6465,0.6514,0.6526,0.6517,0.6521,0.6646,0.6647,0.6647,0.6622,0,0,0,0,0,0,0.6115,0.6132,0.6148,0.6208,0.6227,0.63,0.6309,0.6319,0.6347,0.6349,0.641,0.642,0.6452,0.6506,0.6519,0.6532,0.6525,0.6645,0.6646,0.6647,0.6622,0.6622,0.6622,0,0,0,0,0,0.6109,0.6137,0.6148,0.6162,0.6247,0.63,0.6312,0.6347,0.6348,0.6364,0.64,0.6418,0.6522,0.6511,0.6525,0.6541,0.6644,0.6646,0.6647,0.6622,0.6622,0.6622,0,0,0,0,0,0,0.6078,0.6146,0.6159,0.6207,0.6247,0.6307,0.6328,0.6346,0.6388,0.6389,0.6432,0.6446,0.6491,0.6521,0.6507,0.6582,0.6585,0.6589,0.6561,0.6561,0.6561,0.6553,0.6529,0,0,0,0,0,0.6077,0.6114,0.6171,0.6208,0.6227,0.6274,0.6299,0.6322,0.6367,0.6385,0.6425,0.6468,0.651,0.6537,0.658,0.6626,0.664,0.6644,0.6644,0.6643,0.6647,0.6673,0.6676,0.6652,0.6652,0.6652,0,0,0.6074,0.6116,0.6137,0.6203,0.6237,0.6275,0.6288,0.6328,0.6357,0.6391,0.644,0.6471,0.6521,0.6569,0.6593,0.6596,0.6656,0.6645,0.6644,0.6648,0.6675,0.6677,0.6679,0.6653,0.6653,0.6653,0,0,0.609,0.6125,0.6159,0.6193,0.6244,0.6275,0.6283,0.634,0.6361,0.6411,0.6436,0.6472,0.6544,0.6579,0.6606,0.6633,0.6652,0.6646,0.6646,0.6671,0.6673,0.6675,0.6685,0.6688,0.6649,0.6649,0.6649,0,0.6081,0.6139,0.6175,0.6213,0.6241,0.6272,0.6307,0.6339,0.6401,0.642,0.6422,0.6513,0.655,0.6606,0.6612,0.6633,0.6644,0.664,0.667,0.6672,0.6674,0.6684,0.6688,0.6648,0.6648,0.6648,0.6648,0,0.6125,0.6164,0.6186,0.6245,0.6275,0.6312,0.6354,0.6381,0.6401,0.6432,0.6481,0.6526,0.6577,0.6592,0.6614,0.6652,0.6652,0.6661,0.6665,0.6675,0.6685,0.6689,0.6647,0.6647,0.6647,0.6648,0,0,0.6125,0.6202,0.6209,0.6236,0.6294,0.6326,0.6364,0.6413,0.6435,0.6477,0.651,0.657,0.6578,0.6609,0.6635,0.6657,0.6675,0.6664,0.6666,0.6664,0.672,0.6712,0.6716,0.6687,0.6688,0.6689,0.6715,0,0.6148,0.6216,0.6249,0.6303,0.634,0.637,0.6403,0.6442,0.6471,0.6508,0.654,0.6582,0.659,0.6609,0.6632,0.6668,0.6687,0.6667,0.6719,0.672,0.6705,0.6721,0.6714,0.6737,0.672,0.672,0.6721,0,0.6184,0.6225,0.6282,0.6336,0.6352,0.6381,0.6429,0.6463,0.6508,0.6528,0.6561,0.6586,0.6627,0.6627,0.6685,0.667,0.6693,0.6714,0.6716,0.6722,0.6721,0.6728,0.6745,0.6748,0.6727,0.6727,0.6726,0,0.6178,0.6247,0.629,0.6312,0.6376,0.6395,0.6423,0.6468,0.6495,0.6537,0.6555,0.6601,0.6626,0.6662,0.6698,0.6694,0.6752,0.6755,0.677,0.6769,0.6781,0.678,0.6802,0.6795,0.6795,0.6795,0.6795,0,0.62,0.6234,0.6288,0.6315,0.6354,0.6391,0.6429,0.6459,0.6498,0.6531,0.656,0.6591,0.6636,0.6673,0.6701,0.6745,0.6756,0.6773,0.6781,0.6771,0.6769,0.6787,0.6787,0.6796,0.6796,0.6796,0.6796,0,0.62,0.6238,0.6287,0.6342,0.6357,0.6383,0.6431,0.6458,0.6488,0.653,0.6542,0.6589,0.6634,0.6673,0.6732,0.6751,0.6795,0.6804,0.6779,0.6783,0.6796,0.6794,0.6831,0.6838,0.6826,0.6826,0.6826,0,0.6212,0.6239,0.6297,0.6321,0.6348,0.6386,0.6413,0.6451,0.6479,0.6532,0.6553,0.6599,0.6638,0.6707,0.6747,0.6792,0.6803,0.6812,0.681,0.6799,0.6803,0.6801,0.6804,0.6812,0.6812,0.6812,0.6812,0,0.623,0.6247,0.6285,0.633,0.6361,0.6399,0.6437,0.6455,0.65,0.653,0.6575,0.6604,0.6664,0.6709,0.6759,0.6788,0.6808,0.6812,0.6818,0.6809,0.6793,0.6802,0.6779,0.6812,0.6812,0.6812,0.6812,0.6812,0.6237,0.6261,0.6306,0.6347,0.638,0.6414,0.6442,0.6475,0.6513,0.6564,0.6584,0.663,0.6674,0.6742,0.6771,0.6808,0.6811,0.682,0.6822,0.6824,0.6822,0.6787,0.6817,0.6817,0.6817,0.6817,0.6817,0,0.6255,0.6285,0.6323,0.6375,0.6407,0.6422,0.6465,0.6491,0.6531,0.657,0.6607,0.6659,0.6703,0.6746,0.6792,0.6813,0.6823,0.6824,0.6823,0.6829,0.6816,0.6806,0.6815,0.6815,0.6815,0.6815,0.6815,0.6815,0.6269,0.6312,0.6334,0.6393,0.6422,0.6467,0.649,0.6522,0.6553,0.6609,0.6645,0.6673,0.6714,0.6763,0.6804,0.6815,0.6831,0.6829,0.6843,0.683,0.683,0.683,0.6821,0.6832,0.6832,0.6854,0.6854,0.6854]},{"header":{"parameterUnit":"m.s-1","parameterCategory":1,"la1":30.2991,"la2":30.254,"lo1":-89.0895,"lo2":-89.0444,"dy":0.0017,"dx":0.0017,"nx":28,"ny":28,"refTime":"2024-06-08T21:00:00:Z","depth":0,"parameterNumber":3,"parameterNumberName":"V-component_of_WINDS"},"data":[0,0,0,0,0,0,0,0,0,0,0,0,0,0,0,0,0,0,0,0,0,0,0,0,0,0,0,0,0,0,0,0,0,0,0,0,0,0,0,0,0,0,0,0,0,0,0,0,0,0,0,0,0,0,0,0,0,0,3.3711,3.371,0,3.367,3.3669,3.3669,3.3671,3.3671,3.3672,3.3672,3.3625,3.3623,3.3621,0,0,0,0,0,0,0,0,0,0,0,0,0,3.3785,3.3783,3.3711,3.371,3.371,3.367,3.3669,3.3669,3.367,3.3671,3.3672,3.3673,3.3625,3.3623,3.3621,0,0,0,0,0,0,0,0,0,0,0,0,0,3.3749,3.3783,3.3711,3.3706,3.3705,3.367,3.3669,3.3669,3.367,3.3671,3.3672,3.3673,3.3626,3.3623,3.362,3.3586,0,0,3.3612,3.3611,0,0,0,0,0,0,0,0,3.3751,3.3746,3.3707,3.3706,3.3705,3.3676,3.3678,3.3641,3.367,3.3683,3.3672,3.3673,3.3641,3.3637,3.3627,3.3584,3.3582,3.3612,3.361,3.3609,3.3608,0,0,0,0,0,0,0,3.3753,3.3748,3.3694,3.3707,3.3705,3.3704,3.37,3.3671,3.3657,3.3682,3.3682,3.3678,3.364,3.363,3.3626,3.3581,3.3612,3.361,3.3608,3.3607,3.3506,3.3505,0,0,0,0,0,0,3.3758,3.375,3.3696,3.3693,3.3731,3.3702,3.3697,3.3685,3.3658,3.3655,3.3677,3.3678,3.3634,3.3629,3.3624,3.3582,3.3609,3.3607,3.3605,3.3507,3.3506,3.3505,0,0,0,0,0,0,3.3759,3.3753,3.3697,3.3722,3.3715,3.37,3.3685,3.3683,3.3673,3.3654,3.3651,3.3669,3.3634,3.3628,3.3596,3.358,3.3605,3.3603,3.3508,3.3507,3.3505,3.3496,0,0,0,0,0,0,3.3762,3.3754,3.3742,3.3722,3.3713,3.3671,3.3685,3.3682,3.3669,3.367,3.3646,3.3642,3.3635,3.36,3.3593,3.3577,3.3601,3.351,3.3508,3.3506,3.3498,3.3495,3.3492,0,0,0,0,0,3.3764,3.374,3.3741,3.3734,3.3698,3.3671,3.3666,3.3659,3.3668,3.3655,3.3642,3.3643,3.3583,3.3596,3.3589,3.3571,3.3511,3.3508,3.3506,3.3499,3.3495,3.3492,0,0,0,0,0,0,3.3756,3.3737,3.3738,3.3707,3.3691,3.3671,3.3654,3.3655,3.3634,3.3636,3.3626,3.3621,3.3588,3.3576,3.3592,3.3536,3.3548,3.3544,3.3545,3.3541,3.3538,3.3541,3.3598,0,0,0,0,0,3.3751,3.3732,3.3715,3.3689,3.3681,3.3669,3.3657,3.3653,3.3635,3.3627,3.3613,3.3594,3.357,3.3555,3.3533,3.3496,3.349,3.348,3.3477,3.3475,3.3471,3.345,3.3446,3.3497,3.3497,3.3497,0,0,3.374,3.3727,3.3715,3.3687,3.3674,3.3653,3.3663,3.364,3.3624,3.3623,3.3592,3.3581,3.3559,3.3524,3.3508,3.3513,3.3456,3.3472,3.347,3.3468,3.3447,3.3443,3.3438,3.3496,3.3496,3.3496,0,0,3.3708,3.3697,3.3674,3.3661,3.3642,3.3634,3.3628,3.3609,3.3602,3.3571,3.357,3.3549,3.351,3.3494,3.348,3.3443,3.3442,3.3436,3.3419,3.3399,3.3395,3.3391,3.3377,3.3372,3.3432,3.3432,3.3432,0,3.3696,3.3666,3.3661,3.3638,3.3626,3.3626,3.3602,3.3589,3.3562,3.3552,3.3559,3.3509,3.3494,3.3456,3.3447,3.3436,3.3428,3.3438,3.3396,3.3393,3.3389,3.3375,3.337,3.3431,3.3431,3.3432,3.3432,0,3.3651,3.363,3.3613,3.359,3.3575,3.3551,3.3542,3.3527,3.3524,3.3515,3.3483,3.3466,3.3439,3.343,3.3426,3.339,3.3394,3.3399,3.341,3.3383,3.337,3.3365,3.343,3.3431,3.3431,3.3431,0,0,3.3613,3.3588,3.3582,3.3571,3.355,3.3533,3.3508,3.3485,3.3472,3.3453,3.3432,3.3398,3.3402,3.3387,3.3382,3.3364,3.3335,3.3371,3.337,3.3364,3.3293,3.329,3.3284,3.3335,3.3334,3.3333,3.3295,0,3.3579,3.3538,3.3533,3.3496,3.3476,3.3476,3.3455,3.3438,3.3429,3.3409,3.3398,3.3374,3.3382,3.3373,3.3355,3.3342,3.332,3.3345,3.3313,3.3311,3.3318,3.3277,3.3273,3.3238,3.329,3.3289,3.3288,0,3.3534,3.3516,3.3478,3.3459,3.345,3.3432,3.3409,3.3391,3.3372,3.3366,3.3349,3.3346,3.3319,3.3332,3.3294,3.3311,3.3297,3.3288,3.3287,3.3283,3.3298,3.3272,3.3227,3.3222,3.328,3.3281,3.3281,0,3.3509,3.3475,3.3448,3.3439,3.3417,3.3404,3.3393,3.3376,3.3361,3.3341,3.3332,3.3308,3.3294,3.3275,3.3265,3.3276,3.3227,3.3239,3.322,3.322,3.3209,3.321,3.3161,3.3201,3.3201,3.3201,3.3202,0,3.3471,3.3447,3.3437,3.342,3.3393,3.3387,3.3359,3.3349,3.3333,3.3313,3.3311,3.3291,3.328,3.3258,3.3249,3.3218,3.3212,3.3205,3.3203,3.3206,3.3206,3.3196,3.3198,3.32,3.32,3.3201,3.3201,0,3.3439,3.3431,3.3401,3.3384,3.3379,3.3359,3.3343,3.3325,3.3317,3.3291,3.3284,3.327,3.3244,3.3232,3.32,3.3194,3.3158,3.3158,3.3166,3.3165,3.3146,3.3148,3.3089,3.308,3.3126,3.3126,3.3126,0,3.3415,3.3397,3.3378,3.3365,3.3356,3.3335,3.3321,3.3314,3.3299,3.3276,3.3261,3.3236,3.3215,3.3173,3.3158,3.3133,3.3132,3.3113,3.3128,3.3131,3.3131,3.3132,3.313,3.311,3.311,3.3109,3.3109,0,3.3374,3.3371,3.3352,3.3332,3.3316,3.3299,3.3283,3.3272,3.3262,3.3245,3.322,3.3204,3.3172,3.3146,3.312,3.3107,3.3106,3.3105,3.3099,3.3101,3.3106,3.3102,3.3158,3.3106,3.3106,3.3107,3.3107,3.3107,3.3344,3.3329,3.3313,3.3292,3.3279,3.3264,3.3247,3.3236,3.3216,3.3191,3.3187,3.316,3.314,3.3105,3.3092,3.3069,3.3073,3.3065,3.3062,3.306,3.3059,3.311,3.3064,3.3064,3.3064,3.3064,3.3064,0,3.3302,3.3293,3.3274,3.3251,3.3235,3.3237,3.3219,3.3204,3.3181,3.3163,3.3144,3.3114,3.3089,3.3073,3.3047,3.3032,3.3031,3.3025,3.3026,3.3023,3.3057,3.3065,3.3027,3.3027,3.3027,3.3027,3.3027,3.3027,3.3279,3.3252,3.3247,3.3213,3.3203,3.3178,3.3167,3.3152,3.3138,3.3106,3.3087,3.3077,3.3059,3.3032,3.3009,3.3005,3.2995,3.2989,3.2985,3.3017,3.3021,3.3024,3.3031,3.2987,3.2987,3.2953,3.2952,3.2952]}]]